| time (UTC) | temp F | wind direction | speed MPH | gust MPH | rain 1hr in | rain 24hr in | rain mn in | humidity % | barometer mb |
| 20260903173814 | 82 | 185 | 4.0 | 8.0 | 0.00 | 0.03 | 0.03 | 83 | 1014.2 |
| 20260903173310 | 82 | 229 | 2.0 | 6.0 | 0.00 | 0.03 | 0.03 | 84 | 1014.4 |
| 20260903172806 | 82 | 244 | 2.0 | 6.0 | 0.00 | 0.03 | 0.03 | 84 | 1014.4 |
| 20260903172301 | 82 | 228 | 3.0 | 9.0 | 0.00 | 0.03 | 0.03 | 84 | 1014.4 |
| 20260903171755 | 82 | 273 | 2.0 | 7.0 | 0.00 | 0.03 | 0.03 | 85 | 1014.6 |
| 20260903171252 | 82 | 190 | 3.0 | 11.0 | 0.00 | 0.03 | 0.03 | 85 | 1014.5 |
| 20260903170750 | 82 | 216 | 1.0 | 6.0 | 0.00 | 0.03 | 0.03 | 85 | 1014.7 |
| 20260903170246 | 81 | 225 | 3.0 | 10.0 | 0.00 | 0.03 | 0.03 | 85 | 1014.5 |
| 20260903165744 | 81 | 303 | 7.0 | 7.0 | 0.00 | 0.03 | 0.03 | 87 | 1014.6 |
| 20260903165239 | 81 | 240 | 0.0 | 7.0 | 0.00 | 0.03 | 0.03 | 87 | 1014.6 |
| 20260903164733 | 81 | 296 | 2.0 | 7.0 | 0.00 | 0.03 | 0.03 | 87 | 1014.6 |
| 20260903164229 | 81 | 301 | 5.0 | 10.0 | 0.00 | 0.03 | 0.03 | 88 | 1014.5 |
| 20260903163728 | 80 | 292 | 4.0 | 7.0 | 0.00 | 0.03 | 0.03 | 88 | 1014.4 |
| 20260903163225 | 80 | 251 | 3.0 | 6.0 | 0.00 | 0.03 | 0.03 | 89 | 1014.5 |
| 20260903162721 | 80 | 224 | 0.0 | 7.0 | 0.00 | 0.03 | 0.03 | 89 | 1014.4 |
| 20260903162217 | 81 | 52 | 2.0 | 7.0 | 0.00 | 0.03 | 0.03 | 88 | 1014.4 |
| 20260903161713 | 80 | 282 | 2.0 | 6.0 | 0.00 | 0.03 | 0.03 | 89 | 1014.4 |
| 20260903161208 | 81 | 203 | 2.0 | 7.0 | 0.00 | 0.03 | 0.03 | 89 | 1014.4 |
| 20260903160704 | 80 | 216 | 2.0 | 4.0 | 0.00 | 0.03 | 0.03 | 90 | 1014.3 |
| 20260903160203 | 80 | 219 | 2.0 | 7.0 | 0.00 | 0.03 | 0.03 | 91 | 1014.4 |
| 20260903155702 | 80 | 140 | 3.0 | 9.0 | 0.00 | 0.03 | 0.03 | 91 | 1014.2 |
| 20260903155201 | 80 | 291 | 1.0 | 5.0 | 0.00 | 0.03 | 0.03 | 92 | 1014.2 |
| 20260903154657 | 80 | 298 | 0.0 | 3.0 | 0.00 | 0.03 | 0.03 | 91 | 1014.2 |
| 20260903154153 | 80 | 262 | 2.0 | 4.0 | 0.00 | 0.03 | 0.03 | 91 | 1014.2 |
| 20260903153649 | 80 | 166 | 3.0 | 7.0 | 0.00 | 0.03 | 0.03 | 92 | 1014.2 |
| 20260903153144 | 80 | 196 | 3.0 | 5.0 | 0.00 | 0.03 | 0.03 | 92 | 1014.1 |
| 20260903152640 | 79 | 109 | 3.0 | 6.0 | 0.00 | 0.03 | 0.03 | 93 | 1014.0 |
| 20260903152137 | 79 | 231 | 1.0 | 6.0 | 0.00 | 0.03 | 0.03 | 93 | 1014.3 |
| 20260903151636 | 80 | 272 | 2.0 | 10.0 | 0.00 | 0.03 | 0.03 | 92 | 1014.1 |
| 20260903151131 | 80 | 286 | 3.0 | 9.0 | 0.00 | 0.03 | 0.03 | 92 | 1013.9 |
| 20260903150626 | 80 | 212 | 2.0 | 5.0 | 0.00 | 0.03 | 0.03 | 92 | 1014.2 |
| 20260903150121 | 80 | 249 | 1.0 | 7.0 | 0.00 | 0.03 | 0.03 | 92 | 1014.0 |
| 20260903145620 | 80 | 205 | 3.0 | 4.0 | 0.00 | 0.03 | 0.03 | 92 | 1014.2 |
| 20260903145116 | 80 | 224 | 2.0 | 5.0 | 0.00 | 0.03 | 0.03 | 92 | 1014.4 |
| 20260903144614 | 80 | 253 | 0.0 | 4.0 | 0.00 | 0.03 | 0.03 | 92 | 1014.2 |
| 20260903144111 | 80 | 274 | 0.0 | 6.0 | 0.00 | 0.03 | 0.03 | 92 | 1014.2 |
| 20260903143607 | 80 | 230 | 2.0 | 6.0 | 0.00 | 0.03 | 0.03 | 92 | 1014.3 |
| 20260903143102 | 80 | 241 | 2.0 | 5.0 | 0.00 | 0.03 | 0.03 | 92 | 1014.2 |
| 20260903142557 | 80 | 250 | 1.0 | 5.0 | 0.00 | 0.03 | 0.03 | 92 | 1014.2 |
| 20260903142054 | 80 | 238 | 0.0 | 4.0 | 0.00 | 0.03 | 0.03 | 93 | 1014.3 |
| 20260903141549 | 79 | 193 | 2.0 | 4.0 | 0.00 | 0.03 | 0.03 | 93 | 1014.5 |
| 20260903141044 | 79 | 227 | 2.0 | 8.0 | 0.00 | 0.03 | 0.03 | 93 | 1014.3 |
| 20260903140540 | 79 | 257 | 2.0 | 5.0 | 0.00 | 0.03 | 0.03 | 93 | 1014.2 |
| 20260903140035 | 79 | 307 | 2.0 | 7.0 | 0.00 | 0.03 | 0.03 | 93 | 1014.5 |
| 20260903135530 | 79 | 203 | 3.0 | 4.0 | 0.00 | 0.03 | 0.03 | 93 | 1014.2 |
| 20260903135025 | 79 | 268 | 3.0 | 4.0 | 0.00 | 0.03 | 0.03 | 94 | 1014.4 |
| 20260903134525 | 79 | 121 | 1.0 | 5.0 | 0.00 | 0.03 | 0.03 | 94 | 1014.1 |
| 20260903134021 | 78 | 215 | 2.0 | 6.0 | 0.00 | 0.03 | 0.03 | 94 | 1014.2 |
| 20260903133518 | 78 | 201 | 1.0 | 6.0 | 0.00 | 0.03 | 0.03 | 94 | 1014.3 |
| 20260903133013 | 78 | 194 | 2.0 | 6.0 | 0.00 | 0.03 | 0.03 | 94 | 1014.2 |
| 20260903132508 | 78 | 202 | 3.0 | 6.0 | 0.00 | 0.03 | 0.03 | 95 | 1014.0 |
| 20260903132004 | 78 | 223 | 2.0 | 5.0 | 0.00 | 0.03 | 0.03 | 95 | 1014.2 |
| 20260903131458 | 78 | 203 | 2.0 | 5.0 | 0.00 | 0.03 | 0.03 | 95 | 1014.0 |
| 20260903130957 | 78 | 128 | 2.0 | 5.0 | 0.00 | 0.03 | 0.03 | 95 | 1014.1 |
| 20260903130452 | 77 | 292 | 2.0 | 5.0 | 0.00 | 0.03 | 0.03 | 95 | 1014.0 |
| 20260903125951 | 77 | 209 | 1.0 | 6.0 | 0.00 | 0.03 | 0.03 | 95 | 1014.2 |
| 20260903125450 | 77 | 257 | 2.0 | 5.0 | 0.00 | 0.03 | 0.03 | 96 | 1014.0 |
| 20260903124945 | 77 | 216 | 1.0 | 4.0 | 0.00 | 0.03 | 0.03 | 96 | 1013.8 |
| 20260903124440 | 77 | 226 | 2.0 | 5.0 | 0.00 | 0.03 | 0.03 | 96 | 1013.7 |
| 20260903123939 | 77 | 196 | 3.0 | 6.0 | 0.00 | 0.03 | 0.03 | 96 | 1013.8 |
| 20260903123434 | 77 | 220 | 3.0 | 7.0 | 0.00 | 0.03 | 0.03 | 96 | 1014.2 |
| 20260903122932 | 77 | 201 | 0.0 | 5.0 | 0.00 | 0.03 | 0.03 | 96 | 1013.9 |
| 20260903122427 | 77 | 219 | 0.0 | 5.0 | 0.00 | 0.03 | 0.03 | 96 | 1013.7 |
| 20260903121926 | 77 | 259 | 1.0 | 4.0 | 0.00 | 0.03 | 0.03 | 96 | 1013.6 |
| 20260903121421 | 77 | 267 | 1.0 | 5.0 | 0.00 | 0.03 | 0.03 | 96 | 1013.7 |
| 20260903120917 | 77 | 226 | 1.0 | 5.0 | 0.00 | 0.03 | 0.03 | 96 | 1013.5 |
| 20260903120416 | 77 | 132 | 0.0 | 5.0 | 0.00 | 0.03 | 0.03 | 96 | 1013.6 |
| 20260903115915 | 77 | 236 | 2.0 | 4.0 | 0.00 | 0.03 | 0.03 | 96 | 1013.5 |
| 20260903115415 | 77 | 276 | 2.0 | 3.0 | 0.00 | 0.03 | 0.03 | 96 | 1013.6 |
| 20260903114915 | 77 | 240 | 2.0 | 4.0 | 0.00 | 0.03 | 0.03 | 96 | 1013.7 |
| 20260903114410 | 77 | 284 | 0.0 | 3.0 | 0.00 | 0.03 | 0.03 | 96 | 1013.6 |
| 20260903113906 | 76 | 290 | 2.0 | 5.0 | 0.00 | 0.03 | 0.03 | 96 | 1013.3 |
| 20260903113401 | 76 | 193 | 1.0 | 4.0 | 0.00 | 0.03 | 0.03 | 96 | 1013.2 |
| 20260903112857 | 76 | 287 | 1.0 | 3.0 | 0.00 | 0.03 | 0.03 | 97 | 1013.6 |
| 20260903112353 | 76 | 206 | 2.0 | 3.0 | 0.00 | 0.03 | 0.03 | 97 | 1013.5 |
| 20260903111852 | 76 | 247 | 2.0 | 3.0 | 0.00 | 0.03 | 0.03 | 97 | 1013.2 |
| 20260903111346 | 76 | 191 | 2.0 | 4.0 | 0.00 | 0.03 | 0.03 | 97 | 1013.6 |
| 20260903110842 | 76 | 291 | 1.0 | 4.0 | 0.00 | 0.03 | 0.03 | 97 | 1013.2 |
| 20260903110338 | 76 | 277 | 2.0 | 4.0 | 0.00 | 0.03 | 0.03 | 97 | 1013.4 |
| 20260903105832 | 77 | 189 | 1.0 | 2.0 | 0.00 | 0.03 | 0.03 | 97 | 1013.7 |
| 20260903105327 | 77 | 254 | 1.0 | 3.0 | 0.00 | 0.03 | 0.03 | 97 | 1013.4 |
| 20260903104826 | 76 | 269 | 1.0 | 3.0 | 0.00 | 0.03 | 0.03 | 97 | 1013.4 |
| 20260903104321 | 76 | 226 | 2.0 | 3.0 | 0.00 | 0.03 | 0.03 | 97 | 1013.3 |
| 20260903103818 | 76 | 228 | 0.0 | 3.0 | 0.00 | 0.03 | 0.03 | 97 | 1013.3 |
| 20260903103315 | 76 | 224 | 2.0 | 4.0 | 0.00 | 0.03 | 0.03 | 97 | 1013.1 |
| 20260903102810 | 76 | 269 | 2.0 | 3.0 | 0.00 | 0.03 | 0.03 | 97 | 1013.2 |
| 20260903102306 | 76 | 206 | 2.0 | 3.0 | 0.00 | 0.03 | 0.03 | 97 | 1013.5 |
| 20260903101803 | 76 | 241 | 2.0 | 3.0 | 0.00 | 0.03 | 0.03 | 97 | 1013.1 |
| 20260903101259 | 76 | 208 | 0.0 | 3.0 | 0.00 | 0.03 | 0.03 | 97 | 1013.3 |
| 20260903100754 | 76 | 168 | 2.0 | 4.0 | 0.00 | 0.03 | 0.03 | 97 | 1012.9 |
| 20260903100248 | 76 | 225 | 3.0 | 4.0 | 0.00 | 0.03 | 0.03 | 97 | 1013.1 |
| 20260903095745 | 76 | 223 | 2.0 | 4.0 | 0.00 | 0.03 | 0.03 | 97 | 1013.1 |
| 20260903095240 | 76 | 225 | 2.0 | 4.0 | 0.00 | 0.03 | 0.03 | 97 | 1013.2 |
| 20260903094735 | 76 | 81 | 1.0 | 3.0 | 0.00 | 0.03 | 0.03 | 97 | 1013.3 |
| 20260903094230 | 76 | 173 | 1.0 | 6.0 | 0.02 | 0.03 | 0.03 | 97 | 1013.3 |
| 20260903093725 | 76 | 266 | 2.0 | 4.0 | 0.02 | 0.03 | 0.03 | 97 | 1013.2 |
| 20260903093221 | 76 | 265 | 1.0 | 5.0 | 0.00 | 0.03 | 0.03 | 97 | 1013.4 |
| 20260903092720 | 76 | 307 | 2.0 | 3.0 | 0.00 | 0.03 | 0.03 | 98 | 1013.3 |
| 20260903092215 | 76 | 287 | 0.0 | 3.0 | 0.00 | 0.03 | 0.03 | 98 | 1013.3 |
| 20260903091714 | 77 | 182 | 0.0 | 3.0 | 0.02 | 0.03 | 0.03 | 98 | 1012.9 |
| 20260903091209 | 77 | 287 | 2.0 | 4.0 | 0.02 | 0.02 | 0.02 | 97 | 1013.2 |
| 20260903090704 | 77 | 205 | 0.0 | 3.0 | 0.05 | 0.02 | 0.02 | 97 | 1013.0 |
| 20260903090203 | 77 | 204 | 2.0 | 3.0 | 0.05 | 0.02 | 0.02 | 97 | 1013.2 |
| 20260903085702 | 77 | 215 | 1.0 | 4.0 | 0.09 | 0.02 | 0.02 | 97 | 1013.0 |
| 20260903085157 | 77 | 248 | 3.0 | 5.0 | 0.07 | 0.01 | 0.01 | 96 | 1012.9 |
| 20260903084655 | 77 | 193 | 2.0 | 3.0 | 0.00 | 0.00 | 0.00 | 96 | 1013.1 |
| 20260903084149 | 77 | 205 | 0.0 | 3.0 | 0.00 | 0.00 | 0.00 | 96 | 1012.8 |
| 20260903083645 | 76 | 222 | 2.0 | 3.0 | 0.00 | 0.00 | 0.00 | 96 | 1013.0 |
| 20260903083139 | 76 | 216 | 2.0 | 4.0 | 0.00 | 0.00 | 0.00 | 96 | 1012.8 |
| 20260903082633 | 76 | 237 | 1.0 | 3.0 | 0.00 | 0.00 | 0.00 | 96 | 1012.9 |
| 20260903082130 | 76 | 274 | 1.0 | 5.0 | 0.00 | 0.00 | 0.00 | 96 | 1012.8 |
| 20260903081624 | 76 | 22 | 3.0 | 6.0 | 0.00 | 0.00 | 0.00 | 95 | 1013.0 |
| 20260903081120 | 76 | 9 | 2.0 | 7.0 | 0.00 | 0.00 | 0.00 | 95 | 1013.2 |
| 20260903080616 | 76 | 33 | 1.0 | 4.0 | 0.00 | 0.00 | 0.00 | 94 | 1013.0 |
| 20260903080113 | 76 | 33 | 2.0 | 6.0 | 0.00 | 0.00 | 0.00 | 94 | 1012.8 |
| 20260903075607 | 76 | 21 | 0.0 | 4.0 | 0.00 | 0.00 | 0.00 | 94 | 1012.9 |
| 20260903075103 | 76 | 293 | 1.0 | 6.0 | 0.00 | 0.00 | 0.00 | 93 | 1012.9 |
| 20260903074601 | 76 | 255 | 1.0 | 4.0 | 0.00 | 0.00 | 0.00 | 94 | 1012.9 |
| 20260903074056 | 76 | 335 | 4.0 | 6.0 | 0.00 | 0.00 | 0.00 | 94 | 1012.7 |
| 20260903073551 | 76 | 8 | 4.0 | 7.0 | 0.00 | 0.00 | 0.00 | 93 | 1013.0 |
| 20260903073047 | 76 | 83 | 4.0 | 13.0 | 0.00 | 0.00 | 0.00 | 93 | 1012.9 |
| 20260903072543 | 77 | 36 | 4.0 | 8.0 | 0.00 | 0.00 | 0.00 | 92 | 1013.0 |
| 20260903072039 | 78 | 41 | 4.0 | 5.0 | 0.00 | 0.00 | 0.00 | 89 | 1013.0 |
| 20260903071536 | 78 | 234 | 3.0 | 7.0 | 0.00 | 0.00 | 0.00 | 86 | 1013.4 |
| 20260903071030 | 79 | 276 | 3.0 | 8.0 | 0.00 | 0.00 | 0.00 | 85 | 1013.0 |
| 20260903070530 | 79 | 15 | 5.0 | 11.0 | 0.00 | 0.00 | 0.00 | 84 | 1013.3 |
| 20260903070026 | 80 | 12 | 2.0 | 8.0 | 0.00 | 0.00 | 0.00 | 81 | 1013.3 |
| 20260903065520 | 80 | 305 | 2.0 | 9.0 | 0.00 | 0.00 | 0.00 | 80 | 1013.2 |
| 20260903065019 | 80 | 10 | 1.0 | 11.0 | 0.00 | 0.00 | 0.00 | 80 | 1013.3 |
| 20260903064519 | 80 | 50 | 2.0 | 9.0 | 0.00 | 0.00 | 0.00 | 80 | 1013.3 |
| 20260903064015 | 80 | 37 | 3.0 | 7.0 | 0.00 | 0.00 | 0.00 | 79 | 1013.1 |
| 20260903063510 | 81 | 49 | 3.0 | 9.0 | 0.00 | 0.00 | 0.00 | 79 | 1013.2 |
| 20260903063005 | 81 | 43 | 3.0 | 9.0 | 0.00 | 0.00 | 0.00 | 79 | 1013.0 |
| 20260903062500 | 81 | 77 | 2.0 | 4.0 | 0.00 | 0.00 | 0.00 | 79 | 1013.1 |
| 20260903061955 | 81 | 345 | 4.0 | 7.0 | 0.00 | 0.00 | 0.00 | 79 | 1013.1 |
| 20260903061450 | 81 | 19 | 2.0 | 3.0 | 0.00 | 0.00 | 0.00 | 78 | 1013.1 |
| 20260903060946 | 81 | 47 | 3.0 | 5.0 | 0.00 | 0.00 | 0.00 | 78 | 1013.1 |
| 20260903060440 | 81 | 231 | 1.0 | 4.0 | 0.00 | 0.00 | 0.00 | 78 | 1013.4 |
| 20260903055938 | 81 | 73 | 3.0 | 8.0 | 0.00 | 0.00 | 0.00 | 78 | 1013.5 |
| 20260903055436 | 81 | 13 | 2.0 | 3.0 | 0.00 | 0.00 | 0.00 | 78 | 1013.6 |
| 20260903054931 | 81 | 3 | 3.0 | 4.0 | 0.00 | 0.00 | 0.00 | 78 | 1013.5 |
| 20260903054426 | 81 | 327 | 4.0 | 10.0 | 0.00 | 0.00 | 0.00 | 78 | 1013.7 |
| 20260903053922 | 81 | 44 | 3.0 | 10.0 | 0.00 | 0.00 | 0.00 | 77 | 1013.6 |
| 20260903053421 | 81 | 45 | 5.0 | 7.0 | 0.00 | 0.00 | 0.00 | 77 | 1013.7 |
| 20260903052918 | 81 | 358 | 2.0 | 9.0 | 0.00 | 0.00 | 0.00 | 77 | 1014.0 |
| 20260903052414 | 81 | 316 | 2.0 | 5.0 | 0.00 | 0.00 | 0.00 | 77 | 1013.6 |
| 20260903051909 | 81 | 30 | 5.0 | 8.0 | 0.00 | 0.00 | 0.00 | 77 | 1013.8 |
| 20260903051404 | 81 | 23 | 3.0 | 10.0 | 0.00 | 0.00 | 0.00 | 76 | 1013.9 |
| 20260903050900 | 81 | 28 | 4.0 | 9.0 | 0.00 | 0.00 | 0.00 | 76 | 1013.8 |
| 20260903050358 | 81 | 33 | 2.0 | 7.0 | 0.00 | 0.00 | 0.00 | 75 | 1014.0 |
| 20260903045853 | 81 | 15 | 2.0 | 8.0 | 0.00 | 0.00 | 0.00 | 75 | 1013.9 |
| 20260903045349 | 81 | 48 | 2.0 | 7.0 | 0.00 | 0.00 | 0.00 | 75 | 1014.2 |
| 20260903044846 | 82 | 20 | 5.0 | 10.0 | 0.00 | 0.00 | 0.00 | 75 | 1014.0 |
| 20260903044346 | 82 | 7 | 3.0 | 9.0 | 0.00 | 0.00 | 0.00 | 74 | 1014.0 |
| 20260903043843 | 82 | 312 | 2.0 | 7.0 | 0.00 | 0.00 | 0.00 | 74 | 1014.1 |
| 20260903043337 | 82 | 320 | 6.0 | 11.0 | 0.00 | 0.00 | 0.00 | 73 | 1014.0 |
| 20260903042836 | 82 | 23 | 3.0 | 6.0 | 0.00 | 0.00 | 0.00 | 73 | 1013.9 |
| 20260903042331 | 82 | 335 | 2.0 | 4.0 | 0.00 | 0.00 | 0.00 | 73 | 1013.9 |
| 20260903041827 | 83 | 37 | 3.0 | 9.0 | 0.00 | 0.00 | 0.00 | 72 | 1013.9 |
| 20260903041323 | 83 | 11 | 5.0 | 6.0 | 0.00 | 0.00 | 0.00 | 72 | 1014.0 |
| 20260903040819 | 83 | 47 | 4.0 | 8.0 | 0.00 | 0.00 | 0.00 | 71 | 1014.0 |
| 20260903040317 | 83 | 11 | 3.0 | 7.0 | 0.00 | 0.00 | 0.00 | 71 | 1013.9 |
| 20260903035814 | 83 | 22 | 3.0 | 6.0 | 0.00 | 0.00 | 0.00 | 71 | 1014.0 |
| 20260903035309 | 84 | 1 | 5.0 | 7.0 | 0.00 | 0.00 | 0.00 | 70 | 1014.0 |
| 20260903034804 | 84 | 109 | 0.0 | 5.0 | 0.00 | 0.00 | 0.00 | 69 | 1013.8 |
| 20260903034259 | 84 | 9 | 2.0 | 7.0 | 0.00 | 0.00 | 0.00 | 69 | 1013.6 |
| 20260903033754 | 84 | 329 | 2.0 | 6.0 | 0.00 | 0.00 | 0.00 | 69 | 1013.8 |
| 20260903033250 | 84 | 37 | 3.0 | 6.0 | 0.00 | 0.00 | 0.00 | 68 | 1013.6 |
| 20260903032744 | 84 | 28 | 3.0 | 7.0 | 0.00 | 0.00 | 0.00 | 68 | 1013.9 |
| 20260903032240 | 85 | 44 | 0.0 | 6.0 | 0.00 | 0.00 | 0.00 | 67 | 1013.7 |
| 20260903031735 | 85 | 22 | 2.0 | 7.0 | 0.00 | 0.00 | 0.00 | 66 | 1013.7 |
| 20260903031229 | 85 | 0 | 3.0 | 11.0 | 0.00 | 0.00 | 0.00 | 66 | 1013.9 |
| 20260903030725 | 85 | 6 | 3.0 | 6.0 | 0.00 | 0.00 | 0.00 | 65 | 1013.8 |
| 20260903030221 | 85 | 343 | 4.0 | 5.0 | 0.00 | 0.00 | 0.00 | 65 | 1013.8 |
| 20260903025716 | 86 | 319 | 3.0 | 13.0 | 0.00 | 0.00 | 0.00 | 64 | 1013.9 |
| 20260903025212 | 86 | 82 | 2.0 | 6.0 | 0.00 | 0.00 | 0.00 | 64 | 1013.8 |
| 20260903024712 | 86 | 79 | 3.0 | 10.0 | 0.00 | 0.00 | 0.00 | 64 | 1013.8 |
| 20260903024211 | 86 | 73 | 3.0 | 9.0 | 0.00 | 0.00 | 0.00 | 63 | 1013.8 |
| 20260903023707 | 86 | 58 | 5.0 | 16.0 | 0.00 | 0.00 | 0.00 | 63 | 1013.6 |
| 20260903023201 | 87 | 290 | 3.0 | 8.0 | 0.00 | 0.00 | 0.00 | 63 | 1013.6 |
| 20260903022655 | 87 | 299 | 3.0 | 11.0 | 0.00 | 0.00 | 0.00 | 62 | 1013.6 |
| 20260903022150 | 87 | 317 | 5.0 | 11.0 | 0.00 | 0.00 | 0.00 | 61 | 1013.2 |
| 20260903021649 | 88 | 30 | 3.0 | 9.0 | 0.00 | 0.00 | 0.00 | 61 | 1013.1 |
| 20260903021144 | 88 | 12 | 3.0 | 12.0 | 0.00 | 0.00 | 0.00 | 61 | 1013.1 |
| 20260903020639 | 89 | 306 | 2.0 | 10.0 | 0.00 | 0.00 | 0.00 | 60 | 1013.1 |
| 20260903020134 | 89 | 273 | 3.0 | 7.0 | 0.00 | 0.00 | 0.00 | 58 | 1012.9 |
| 20260903015629 | 90 | 335 | 3.0 | 7.0 | 0.00 | 0.00 | 0.00 | 57 | 1013.0 |
| 20260903015125 | 90 | 271 | 3.0 | 8.0 | 0.00 | 0.00 | 0.00 | 57 | 1012.7 |
| 20260903014624 | 90 | 51 | 3.0 | 12.0 | 0.00 | 0.00 | 0.00 | 56 | 1012.7 |
| 20260903014124 | 90 | 44 | 2.0 | 14.0 | 0.00 | 0.00 | 0.00 | 54 | 1012.7 |
| 20260903013619 | 91 | 19 | 2.0 | 7.0 | 0.00 | 0.00 | 0.00 | 54 | 1012.7 |
| 20260903013114 | 91 | 359 | 4.0 | 5.0 | 0.00 | 0.00 | 0.00 | 53 | 1012.5 |
| 20260903012613 | 91 | 32 | 4.0 | 6.0 | 0.00 | 0.00 | 0.00 | 53 | 1012.2 |
| 20260903012112 | 91 | 316 | 1.0 | 4.0 | 0.00 | 0.00 | 0.00 | 53 | 1012.3 |
| 20260903011612 | 91 | 11 | 1.0 | 9.0 | 0.00 | 0.00 | 0.00 | 52 | 1012.6 |
| 20260903011112 | 91 | 88 | 1.0 | 5.0 | 0.00 | 0.00 | 0.00 | 52 | 1012.4 |
| 20260903010607 | 92 | 326 | 2.0 | 5.0 | 0.00 | 0.00 | 0.00 | 52 | 1012.3 |
| 20260903010105 | 92 | 340 | 3.0 | 7.0 | 0.00 | 0.00 | 0.00 | 51 | 1012.2 |
| 20260903005600 | 92 | 42 | 2.0 | 10.0 | 0.00 | 0.00 | 0.00 | 51 | 1012.3 |
| 20260903005056 | 93 | 346 | 3.0 | 8.0 | 0.00 | 0.00 | 0.00 | 51 | 1012.4 |
| 20260903004556 | 93 | 67 | 0.0 | 6.0 | 0.00 | 0.00 | 0.00 | 51 | 1012.0 |
| 20260903004051 | 93 | 7 | 3.0 | 6.0 | 0.00 | 0.00 | 0.00 | 50 | 1012.2 |
| 20260903003546 | 93 | 27 | 1.0 | 5.0 | 0.00 | 0.00 | 0.00 | 50 | 1012.1 |
| 20260903003041 | 93 | 316 | 3.0 | 7.0 | 0.00 | 0.00 | 0.00 | 50 | 1012.3 |
| 20260903002536 | 93 | 292 | 3.0 | 6.0 | 0.00 | 0.00 | 0.00 | 50 | 1012.0 |
| 20260903002031 | 94 | 13 | 3.0 | 7.0 | 0.00 | 0.00 | 0.00 | 50 | 1012.0 |
| 20260903001526 | 94 | 339 | 2.0 | 7.0 | 0.00 | 0.00 | 0.00 | 50 | 1011.8 |
| 20260903001025 | 94 | 32 | 4.0 | 8.0 | 0.00 | 0.00 | 0.00 | 49 | 1011.9 |
| 20260903000520 | 95 | 19 | 3.0 | 10.0 | 0.00 | 0.00 | 0.00 | 49 | 1012.0 |
| 20260903000014 | 95 | 72 | 3.0 | 10.0 | 0.00 | 0.00 | 0.00 | 49 | 1011.9 |
| 20260902235508 | 96 | 36 | 2.0 | 5.0 | 0.00 | 0.00 | 0.00 | 48 | 1012.1 |
| 20260902235003 | 97 | 228 | 0.0 | 6.0 | 0.00 | 0.00 | 0.00 | 47 | 1012.1 |
| 20260902234458 | 97 | 351 | 1.0 | 6.0 | 0.00 | 0.00 | 0.00 | 47 | 1011.8 |
| 20260902233956 | 96 | 28 | 3.0 | 9.0 | 0.00 | 0.00 | 0.00 | 47 | 1011.9 |
| 20260902233456 | 97 | 14 | 5.0 | 8.0 | 0.00 | 0.00 | 0.00 | 47 | 1012.0 |
| 20260902232951 | 97 | 23 | 2.0 | 9.0 | 0.00 | 0.00 | 0.00 | 47 | 1011.9 |
| 20260902232445 | 97 | 45 | 2.0 | 6.0 | 0.00 | 0.00 | 0.00 | 47 | 1012.0 |
| 20260902231944 | 96 | 64 | 3.0 | 11.0 | 0.00 | 0.00 | 0.00 | 48 | 1011.9 |
| 20260902231439 | 95 | 54 | 3.0 | 13.0 | 0.00 | 0.00 | 0.00 | 49 | 1011.9 |
| 20260902230934 | 96 | 24 | 5.0 | 11.0 | 0.00 | 0.00 | 0.00 | 47 | 1011.7 |
| 20260902230433 | 97 | 34 | 4.0 | 7.0 | 0.00 | 0.00 | 0.00 | 46 | 1011.9 |
| 20260902225928 | 96 | 53 | 4.0 | 9.0 | 0.00 | 0.00 | 0.00 | 47 | 1011.9 |
| 20260902225423 | 96 | 300 | 4.0 | 11.0 | 0.00 | 0.00 | 0.00 | 47 | 1011.9 |
| 20260902224922 | 96 | 26 | 7.0 | 13.0 | 0.00 | 0.00 | 0.00 | 48 | 1011.8 |
| 20260902224422 | 97 | 26 | 3.0 | 11.0 | 0.00 | 0.00 | 0.00 | 47 | 1011.7 |
| 20260902223919 | 99 | 59 | 4.0 | 14.0 | 0.00 | 0.00 | 0.00 | 44 | 1011.7 |
| 20260902223418 | 100 | 5 | 3.0 | 9.0 | 0.00 | 0.00 | 0.00 | 42 | 1011.8 |
| 20260902222913 | 102 | 336 | 2.0 | 7.0 | 0.00 | 0.00 | 0.00 | 42 | 1011.8 |
| 20260902222411 | 101 | 345 | 2.0 | 5.0 | 0.00 | 0.00 | 0.00 | 42 | 1011.7 |
| 20260902221911 | 100 | 289 | 5.0 | 6.0 | 0.00 | 0.00 | 0.00 | 43 | 1011.8 |
| 20260902221410 | 101 | 338 | 2.0 | 9.0 | 0.00 | 0.00 | 0.00 | 42 | 1011.6 |
| 20260902220906 | 102 | 301 | 3.0 | 5.0 | 0.00 | 0.00 | 0.00 | 42 | 1011.8 |
| 20260902220405 | 101 | 15 | 4.0 | 9.0 | 0.00 | 0.00 | 0.00 | 41 | 1011.9 |
| 20260902215900 | 100 | 354 | 4.0 | 9.0 | 0.00 | 0.00 | 0.00 | 42 | 1011.9 |
| 20260902215355 | 101 | 357 | 3.0 | 7.0 | 0.00 | 0.00 | 0.00 | 41 | 1012.0 |
| 20260902214852 | 100 | 311 | 3.0 | 11.0 | 0.00 | 0.00 | 0.00 | 42 | 1011.8 |
| 20260902214350 | 100 | 334 | 2.0 | 10.0 | 0.00 | 0.00 | 0.00 | 42 | 1011.8 |
| 20260902213845 | 100 | 338 | 2.0 | 9.0 | 0.00 | 0.00 | 0.00 | 42 | 1012.0 |
| 20260902213341 | 100 | 333 | 5.0 | 8.0 | 0.00 | 0.00 | 0.00 | 42 | 1012.0 |
| 20260902212839 | 100 | 344 | 2.0 | 6.0 | 0.00 | 0.00 | 0.00 | 41 | 1012.1 |
| 20260902212337 | 101 | 316 | 4.0 | 7.0 | 0.00 | 0.00 | 0.00 | 41 | 1012.0 |
| 20260902211833 | 100 | 334 | 3.0 | 8.0 | 0.00 | 0.00 | 0.00 | 41 | 1012.0 |
| 20260902211328 | 100 | 19 | 3.0 | 6.0 | 0.00 | 0.00 | 0.00 | 42 | 1011.9 |
| 20260902210823 | 101 | 32 | 0.0 | 7.0 | 0.00 | 0.00 | 0.00 | 42 | 1012.3 |
| 20260902210323 | 101 | 11 | 3.0 | 10.0 | 0.00 | 0.00 | 0.00 | 41 | 1012.1 |
| 20260902205820 | 101 | 346 | 1.0 | 8.0 | 0.00 | 0.00 | 0.00 | 41 | 1012.4 |
| 20260902205316 | 101 | 331 | 3.0 | 6.0 | 0.00 | 0.00 | 0.00 | 41 | 1012.3 |
| 20260902204812 | 101 | 29 | 2.0 | 7.0 | 0.00 | 0.00 | 0.00 | 41 | 1012.7 |
| 20260902204306 | 101 | 335 | 3.0 | 10.0 | 0.00 | 0.00 | 0.00 | 42 | 1012.6 |
| 20260902203801 | 101 | 312 | 3.0 | 6.0 | 0.00 | 0.00 | 0.00 | 42 | 1012.7 |
| 20260902203256 | 101 | 282 | 4.0 | 8.0 | 0.00 | 0.00 | 0.00 | 42 | 1012.9 |
| 20260902202751 | 100 | 344 | 4.0 | 8.0 | 0.00 | 0.00 | 0.00 | 42 | 1012.9 |
| 20260902202248 | 99 | 246 | 3.0 | 8.0 | 0.00 | 0.00 | 0.00 | 43 | 1012.8 |
| 20260902201744 | 100 | 313 | 4.0 | 8.0 | 0.00 | 0.00 | 0.00 | 42 | 1013.0 |
| 20260902201244 | 100 | 357 | 4.0 | 11.0 | 0.00 | 0.00 | 0.00 | 43 | 1013.2 |
| 20260902200739 | 99 | 352 | 2.0 | 9.0 | 0.00 | 0.00 | 0.00 | 43 | 1013.2 |
| 20260902200234 | 100 | 54 | 4.0 | 7.0 | 0.00 | 0.00 | 0.00 | 43 | 1013.4 |
| 20260902195730 | 100 | 319 | 2.0 | 9.0 | 0.00 | 0.00 | 0.00 | 44 | 1013.5 |
| 20260902195228 | 98 | 347 | 3.0 | 9.0 | 0.00 | 0.00 | 0.00 | 45 | 1013.5 |
| 20260902194723 | 98 | 9 | 5.0 | 9.0 | 0.00 | 0.00 | 0.00 | 45 | 1013.6 |
| 20260902194218 | 99 | 351 | 5.0 | 7.0 | 0.00 | 0.00 | 0.00 | 44 | 1013.7 |
| 20260902193713 | 98 | 330 | 2.0 | 8.0 | 0.00 | 0.00 | 0.00 | 45 | 1013.7 |
| 20260902193208 | 98 | 346 | 2.0 | 9.0 | 0.00 | 0.00 | 0.00 | 45 | 1013.6 |
| 20260902192706 | 99 | 258 | 3.0 | 5.0 | 0.00 | 0.00 | 0.00 | 46 | 1013.7 |
| 20260902192201 | 98 | 216 | 2.0 | 5.0 | 0.00 | 0.00 | 0.00 | 47 | 1013.9 |
| 20260902191701 | 98 | 265 | 2.0 | 5.0 | 0.00 | 0.00 | 0.00 | 48 | 1014.1 |
| 20260902191155 | 97 | 352 | 4.0 | 10.0 | 0.00 | 0.00 | 0.00 | 47 | 1014.2 |
| 20260902190651 | 97 | 298 | 2.0 | 7.0 | 0.00 | 0.00 | 0.00 | 47 | 1013.9 |
| 20260902190146 | 97 | 290 | 0.0 | 5.0 | 0.00 | 0.00 | 0.00 | 47 | 1014.1 |
| 20260902185642 | 97 | 129 | 2.0 | 9.0 | 0.00 | 0.00 | 0.00 | 48 | 1014.1 |
| 20260902185138 | 97 | 3 | 2.0 | 6.0 | 0.00 | 0.00 | 0.00 | 47 | 1014.5 |
| 20260902184638 | 97 | 289 | 4.0 | 8.0 | 0.00 | 0.00 | 0.00 | 49 | 1014.5 |
| 20260902184133 | 97 | 297 | 3.0 | 7.0 | 0.00 | 0.00 | 0.00 | 48 | 1014.5 |
| 20260902183629 | 96 | 16 | 4.0 | 7.0 | 0.00 | 0.00 | 0.00 | 48 | 1014.7 |
| 20260902183126 | 95 | 0 | 3.0 | 6.0 | 0.00 | 0.00 | 0.00 | 50 | 1014.7 |
| 20260902182621 | 96 | 49 | 5.0 | 7.0 | 0.00 | 0.00 | 0.00 | 48 | 1014.8 |
| 20260902182118 | 96 | 112 | 4.0 | 11.0 | 0.00 | 0.00 | 0.00 | 49 | 1014.9 |
| 20260902181614 | 95 | 43 | 2.0 | 9.0 | 0.00 | 0.00 | 0.00 | 49 | 1015.2 |
| 20260902181113 | 96 | 51 | 4.0 | 7.0 | 0.00 | 0.00 | 0.00 | 48 | 1015.3 |
| 20260902180613 | 95 | 264 | 3.0 | 7.0 | 0.00 | 0.00 | 0.00 | 52 | 1015.3 |
| 20260902180109 | 96 | 281 | 4.0 | 4.0 | 0.00 | 0.00 | 0.00 | 52 | 1015.5 |
| 20260902175608 | 94 | 342 | 3.0 | 11.0 | 0.00 | 0.00 | 0.00 | 53 | 1015.5 |
| 20260902175104 | 95 | 358 | 2.0 | 7.0 | 0.00 | 0.00 | 0.00 | 51 | 1015.8 |
| 20260902174600 | 94 | 57 | 8.0 | 8.0 | 0.00 | 0.00 | 0.00 | 52 | 1015.7 |
| 20260902174050 | 94 | 5 | 3.0 | 6.0 | 0.00 | 0.00 | 0.00 | 52 | 1015.7 |